Showing default

BRO-11, 58264

Orbit data source: Space-Track

BRO-11, 58264 is a payload satellite owned by Unseen Labs (FR) in SSO that was launched on Sat, 11 Nov 2023 UTC via an FALCON 9 launch vehicle from the Air Force Western Test Range (AFWTR). Payload-class satellites include a variety of spacecraft equipped with specific instruments for various scientific and technological missions. These include communications satellites like Starlink; space stations such as the ISS; scientific satellites like the Hubble; Earth observation satellites from companies like Planet Labs, Umbra, and HawkEye 360; GPS; miniature CubeSats for education and research; and military/defense satellites.

Loading next visibility...
Identifier
58264, 2023-174J
Orbit
SSO
Country
Flag of FRFR
Related business
Manufacturer
GOMSpace
Mission
Operational Commercial Sigint
Bus & Motor
CUBESAT 6U, Unknown motor
Mass
10 kg wet, ~10 kg dry
Launch date (UTC)
2023-11-11 (3 years ago)
Launch vehicle
FALCON 9
Launch site
Air Force Western Test Range (AFWTR)
Object type
Payload
Rocket body
Debris
Shape & HBR
Box, 0.1 m
Radar Cross Section
0.080 m², Medium (>0.1 m² and < 1m²)

Expand to show TLE details & history
Last TLE update: 22 hours ago

TLE from 22 hours ago
0 BRO-11
1 58264U 23174J   26172.50556666  .00004261  00000-0  16147-3 0  9994
2 58264  97.3902 249.3102 0010331 183.5197 176.5971 15.27391747145417
Epoch: 2026-06-21T12:08Z
TLE epoch observation values (Epoch: 2026-06-21T12:08:00.959Z)
Latitude
-0.00004°
Longitude
157.60134°
Altitude
493.792 km
Speed
7.614 km/s
True Right ascension
16h 37m 14s
True Declination
0° 00' 00"
Sunlit
Object was in full shadow at epoch
Visualization orbit readout
Latitude
Unknown
Longitude
Unknown
Altitude
Unknown
Speed
Unknown
Apparent Right ascension
Unknown
Apparent Declination
Unknown
Sunlit
N/A
Visualization observer readout
Local Sidereal Time
21:37:27
Azimuth
Unknown
Elevation
Unknown
Doppler factor
Unknown
Orbital elements
Apogee altitude
487.654 km
Perigee altitude
473.482 km
Semi-major axis
6,858.705 km
Eccentricity
0.00103
Inclination
97.3902°
RAAN
249.3102°
Arg. of periapsis
183.5197°
True anomaly
176.60412°
Mean anomaly
176.5971°
Eccentric anomaly
176.60061°
Mean motion
3.82103 °/min
Orbital period
94.22 mins
BSTAR
0.00016147
Loading maneuver chart data...
Computing Atmospheric mass density...

Documentation

Showing up to 5 results
|